Погода в Полтаве

Погода в Полтаве : погода сейчас, прогноз погоды и архив. Всё, что Вы хотите узнать о погоде в Полтаве!

Поиск расширенной информации на нашем сайте:

Другие новости

Новости СМИ2

Главная страница сайта

Новости сайта

03.07.2017

Напоминаем, что на нашем специализированном сайте Метеоцентр.Азия вы можете получить высокодетализированные автоматические прогнозы погоды по пунктам России, СНГ и мира в авиационном формате (включающие направление и скорость ветра, видимость, явления погоды, количество и форму облачности, нижнюю и верхнюю границу облачности).


Погода в Полтаве - сегодня

Время (UTC), дата Ветер
(°,м/с) 
Видим.   Явления Облачность Т
(°С)
Тd
(°С)
f(%) Тe
(°С)
Pmin
(гПа)
dP
(гПа)
Po
(мм)
O2
(г/м3)
Тmin Tmax R s Состояние
почвы
15 13.01.18 040 (СВ) 10 км  слаб. ливневой снег  10/10 600 м кучево-дожд. 
[Cb cap]
-6 -9.1 79 -9  1040.6  -0.1  765  316           
18 13.01.18 040 (СВ) 10 км  {ливн. осадки}  10/10 600 м кучево-дожд. 
[Cb cap]
-6.2 -9.3 79 -10  1040.9  0.3  765  316    -4.9  0.0     
21 13.01.18 050 (СВ) 10 км  слаб. ливневой снег  9/9 600 м кучево-дожд. 
[Cb cap]
-7.6 -10.2 82 -11  1040.6  -0.4  765  318           
00 14.01.18 040 (СВ) 10 км  слаб. ливневой снег  10/10 600 м кучево-дожд. 
[Cb cap]
-8.4 -11.2 80 -12  1040  -0.7  764  319      0.0     
03 14.01.18 010 (С) 10 км  {ливн. осадки}  10/10 600 м 
[Sc]
-9.2 -12.2 79 -13  1039.5  -0.6  764  320           
06 14.01.18 030 (СВ) 10 км    10/10 600 м 
[Sc]
-10.3 -12.2 86 -14  1039.6  0.1  764  321  -10.7    0.0     
09 14.01.18 030 (СВ) 10 км    ясно 
-8.2 -11.4 78 -12  1038.9  -0.6  763  318           
12 14.01.18 020 (С) 10 км    ясно 
-6.3 -10.8 70 -10  1037.4  -1.3  762  315           
15 14.01.18 020 (С) 10 км    ясно 
-7.1 -11.4 71 -11  1037.3  -0.1  762  316           
18 14.01.18 030 (СВ) 10 км    ясно 
-9.3 -12.3 79 -13  1037.8  0.3  762  319    -5.7       
21 14.01.18 030 (СВ) 10 км    ясно 
-10.7 -12.6 86 -14  1038  0.1  763  321           
00 15.01.18 030 (СВ) 10 км    ясно 
-11.8 -13.4 88 -15  1037.4  -0.7  762  322           
03 15.01.18 030 (СВ) 10 км    ясно 
-12.1 -13.5 89 -15  1036.8  -0.6  762  322           
06 15.01.18 030 (СВ) 10 км    3/0 верхняя 
[Ci fib]
-13.7 -14.9 91 -17  1036.6  -0.4  761  324  -14.1         
09 15.01.18 020 (С) 10 км    9/0 верхняя 
[Cs]
-10.7 -12.7 85 -15  1035.6  -0.7  761  320           
12 15.01.18 020 (С) 10 км    9/0 средняя 
[Ac As]
-8.2 -12.8 69 -13  1033.4  -2  759  317           
15 15.01.18 030 (СВ) 4000 м  слаб. ливневой снег  10/10 600 м кучево-дожд. 
[Cb cap]
-7.9 -11.5 75 -12  1032.5  -0.8  759  316           
18 15.01.18 020 (С) 4000 м  слаб. ливневой снег  10/10 600 м кучево-дожд. 
[Cb cap]
-9 -11.5 82 -12  1030.9  -1.7  757  317    -7.3  0.3     
21 15.01.18 040 (СВ) 4000 м  слаб. ливневой снег  10/10 600 м кучево-дожд. 
[Cb cap]
-9.1 -10.6 89 -12  1029.5  -1.3  756  316           
00 16.01.18 060 (СВ) 4000 м  слаб. ливневой снег  10/10 600 м кучево-дожд. 
[Cb cap]
-9.2 -10.8 88 -11  1028.1  -1.4  755  316         
03 16.01.18 080 (В) 4000 м  слаб. ливневой снег  10/10 600 м кучево-дожд. 
[Cb cap]
-10.1 -11.3 91 -12  1026.5  -1.7  754  317           
06 16.01.18 120 (ЮВ) 4000 м  дымка{ливн. осадки}  10/10 600 м кучево-дожд. 
[Cb cap]
-11.4 -11.8 97 -13  1026  -0.6  754  318  -11.8       
09 16.01.18 120 (ЮВ) 4000 м  в посл. час ливневой снег  9/8 600 м кучево-дожд., средняя, верхняя 
[Cb cap|Ac As|Cc]
-10.2 -11.5 90 -14  1025.4  -0.4  753  316           
12 16.01.18 120 (ЮВ) 10 км    8/3 600 м средняя, верхняя 
[Sc|Ac As|Ci ing]
-9.2 -11.2 85 -13  1023  -2.3  752  314      0.0     
15 16.01.18 100 (В) 10 км    10/8 600 м средняя 
[Sc|Ac und]
-10.2 -11.5 90 -14  1021.5  -1.6  750  315           
Время (UTC), дата Ветер
(°,м/с) 
Видим.   Явления Облачность Т
(°С)
Тd
(°С)
f(%) Тe
(°С)
Pmin
(гПа)
dP
(гПа)
Po
(мм)
O2
(г/м3)
Тmin Tmax R s Состояние
почвы

Для получения пояснительной информации подведите курсор к названию столбца.

ПОГОДА в Полтаве - архив

Всё, что Вы хотите узнать о погоде в Полтаве - удобно и подробно!

Выберите нужную дату (начиная с 1 января 2015* года) и нажмите кнопку "Найти".
Будут отображены архивные сводки погоды по пункту Полтава, начиная с указанной даты.


Отображать данные в формате CSV (для использования в таблицах Excel)


Внимание! Наш архив погоды предназначен исключительно для личного некоммерческого использования в познавательных целях. Если Вам необходимы официальные справки о состоянии погоды (для производственных, юридических, коммерческих и т.п. целей), обращайтесь в органы Росгидромета.

*Примечание: данная дата относится к архиву по метеостанциям СССР (Россия, СНГ, Балтия).
Архив по метеостанциям Зарубежной Европы и Азии (кроме Китая) хранится 10 дней, по другим регионам земного шара (Китай, Африка, Америка, Австралия, Океания) - 1 день.

Полтава - район местоположения метеостанции


Название, широта, долгота, высота метеостанции:
Полтава 49.6°ш. 34.6°д. 160 м над ур. моря [Украина]

Дополнительная информация

В oтличие oт бoльшинства пoгoдных сайтoв мы публикуем пoдрoбную метеoинфoрмацию в детальнoм прoфессиoнальнoм фoрмате.

Характеристики температуры и влажнoсти вoздуха измеряются на высoте 2 м в тени вдали oт зданий и деревьев.
Скoрoсть ветра измеряется на высoте 10 м (на урoвне рoста челoвека скoрoсть ветра ниже в 1.5-2 раза). Если метеoстанция нахoдится в гoрoде или в лесу, тo скoрoсть ветра занижена на 2-4 м/с пo сравнению с oткрытым местoм. Скoрoсть ветра над акватoриями крупных рек и oзёр, а также на вершинах хoлмoв на 2-5 м/с выше, чем в oбычных услoвиях.
Атмoсфернoе давление в разных тoчках местнoсти мoжет значительнo oтличаться oт давления на метеoстанции, в зависимoсти oт услoвий рельефа (при пoдъёме на 10 м давление пoнижается примернo на 1 мм рт.ст.).